Flag for Netherlands Weather past 2 weeks in Groningen, Netherlands

Now
48 °F

Clear.


Feels Like: 46 °F
Forecast: 52 / 72 °F
Wind: 5 mph from East

Location: Groningen Eelde Airport

Current Time: Aug 1, 2015 at 4:22:35 AM

Latest Report: Aug 1, 2015 at 3:55 AM


Visibility: N/A

Pressure: 30.04 "Hg

Humidity: 87%

Dew point: 45 °F

Location of GroningenLocation

Historic Weather in Groningen — Graph

°F

Groningen temperature yesterday

Maximum temperature yesterday: 64 °F (at 5:25 PM)
Minimum temperature yesterday: 46 °F (at 4:25 AM)
Average temperature yesterday: 56 °F

Past Weeks' High & Low Weather Summary

 TemperatureHumidityPressure
High79 °F (Jul 17, 11:55 AM)100% (Jul 18, 4:55 AM)30.12 "Hg (Jul 18, 4:55 AM)
Low46 °F (Jul 20, 5:25 AM)43% (Jul 23, 3:25 PM)29.36 "Hg (Jul 25, 1:25 PM)
Average61 °F80%29.81 "Hg
* Reported Jul 17 2:25 AM — Aug 1 2:55 AM, Groningen, Weather by CustomWeather, © 2015

Note: Actual official high and low records may vary slightly from our data, if they occured in-between our weather recording intervals... More about our weather records

Advertising

Groningen weather history for previous 24 hours

 ConditionsComfort  
Time TempWeatherWind HumidityBarometerVisibility
2:55 AM
Sat, Aug 1
50 °FClear.5 mph82%30.07 "HgN/A
2:25 AM50 °FCool.5 mph82%30.07 "HgN/A
1:55 AM50 °FClear.5 mph82%30.07 "HgN/A
1:25 AM48 °FCool.5 mph94%30.07 "HgN/A
12:55 AM50 °FCool.3 mph88%30.07 "HgN/A
12:25 AM50 °FCool.3 mph82%30.07 "HgN/A
11:55 PM
Fri, Jul 31
50 °FCool.5 mph88%30.07 "HgN/A
11:25 PM50 °FCool.5 mph88%30.07 "HgN/A
10:55 PM52 °FCool.5 mph82%30.07 "HgN/A
10:25 PM52 °FCool.6 mph82%30.07 "HgN/A
9:55 PM54 °FCool.6 mph77%30.07 "HgN/A
9:25 PM54 °FCool.7 mph77%30.07 "HgN/A
8:55 PM57 °FCool.7 mph67%30.07 "HgN/A
8:25 PM61 °FCool.6 mph63%30.07 "HgN/A
7:55 PM63 °FScattered clouds.6 mph56%30.07 "HgN/A
7:25 PM63 °FPartly sunny.2 mph52%30.07 "HgN/A
6:55 PM64 °FClear.1 mph46%30.09 "HgN/A
6:25 PM64 °FClear.3 mph52%30.09 "HgN/A
5:55 PM64 °FClear.2 mph49%30.09 "HgN/A
5:25 PM64 °FMild.5 mph49%30.09 "HgN/A
4:55 PM61 °FClear.5 mph55%30.09 "HgN/A
4:25 PM63 °FClear.5 mph52%30.09 "HgN/A
3:55 PM63 °FScattered clouds.7 mph49%30.09 "HgN/A
3:25 PM63 °FClear.3 mph52%30.12 "HgN/A
2:55 PM63 °FPassing clouds.5 mph56%30.12 "HgN/A
2:25 PM61 °FPartly sunny.8 mph55%30.12 "HgN/A
1:55 PM61 °FClear.8 mph55%30.12 "HgN/A
1:25 PM61 °FClear.8 mph55%30.12 "HgN/A
12:55 PM59 °FBroken clouds.13 mph63%30.12 "HgN/A
12:25 PM61 °FClear.7 mph55%30.12 "HgN/A
11:55 AM61 °FClear.8 mph59%30.12 "HgN/A
11:25 AM59 °FScattered clouds.9 mph63%30.12 "HgN/A
10:55 AM57 °FMostly cloudy.7 mph72%30.12 "HgN/A
10:25 AM59 °FScattered clouds.8 mph68%30.12 "HgN/A
9:25 AM57 °FPartly sunny.7 mph72%30.09 "HgN/A
8:55 AM57 °FClear.9 mph67%30.09 "HgN/A
8:25 AM55 °FCool.6 mph77%30.09 "HgN/A
7:55 AM54 °FCool.5 mph82%30.09 "HgN/A
7:25 AM52 °FCool.6 mph82%30.09 "HgN/A
6:55 AM48 °FClear.6 mph94%30.07 "HgN/A
6:25 AM50 °FClear.5 mph94%30.07 "HgN/A
5:55 AM50 °FPassing clouds.2 mph88%30.07 "HgN/A
5:25 AM50 °FClear.5 mph88%30.07 "HgN/A
4:55 AM50 °FClear.6 mph88%30.07 "HgN/A
4:25 AM46 °FClear.6 mph93%30.07 "HgN/A
Weather by CustomWeather, © 2015

See weather overviewHow to use our weather pages